| time (UTC) | temp F | wind direction | speed MPH | gust MPH | rain 1hr in | rain 24hr in | rain mn in | humidity % | barometer mb |
| 20260502221230 | 41 | 286 | 2.0 | 5.0 | 0.00 | 0.01 | 0.00 | 71 | 1016.0 |
| 20260502215730 | 41 | 294 | 1.0 | 5.0 | 0.00 | 0.01 | 0.00 | 74 | 1015.8 |
| 20260502214230 | 41 | 349 | 2.0 | 5.0 | 0.00 | 0.01 | 0.00 | 74 | 1015.8 |
| 20260502213419 | 41 | 346 | 1.0 | 4.0 | 0.00 | 0.01 | 0.00 | 74 | 1015.8 |
| 20260502211230 | 41 | 359 | 3.0 | 8.0 | 0.00 | 0.01 | 0.00 | 74 | 1015.8 |
| 20260502210420 | 41 | 335 | 3.0 | 7.0 | 0.00 | 0.01 | 0.00 | 73 | 1015.8 |
| 20260502205637 | 41 | 50 | 4.0 | 10.0 | 0.00 | 0.01 | 0.00 | 73 | 1015.8 |
| 20260502202727 | 40 | 45 | 5.0 | 10.0 | 0.00 | 0.01 | 0.00 | 73 | 1015.9 |
| 20260502201227 | 40 | 356 | 3.0 | 9.0 | 0.00 | 0.01 | 0.00 | 75 | 1016.0 |
| 20260502195728 | 40 | 300 | 3.0 | 8.0 | 0.00 | 0.01 | 0.00 | 77 | 1016.0 |
| 20260502194227 | 39 | 348 | 5.0 | 10.0 | 0.00 | 0.01 | 0.00 | 76 | 1016.2 |
| 20260502192727 | 40 | 284 | 7.0 | 15.0 | 0.00 | 0.01 | 0.00 | 77 | 1016.1 |
| 20260502191229 | 42 | 291 | 4.0 | 12.0 | 0.00 | 0.01 | 0.00 | 74 | 1015.9 |
| 20260502185729 | 42 | 335 | 5.0 | 11.0 | 0.00 | 0.01 | 0.00 | 72 | 1016.1 |
| 20260502184225 | 42 | 34 | 6.0 | 14.0 | 0.00 | 0.01 | 0.00 | 73 | 1016.2 |
| 20260502182723 | 42 | 20 | 5.0 | 12.0 | 0.00 | 0.01 | 0.00 | 75 | 1016.3 |
| 20260502181223 | 41 | 328 | 5.0 | 10.0 | 0.00 | 0.01 | 0.00 | 78 | 1016.2 |
| 20260502164211 | 41 | 316 | 5.0 | 10.0 | 0.00 | 0.03 | 0.00 | 74 | 1016.3 |
| 20260502162711 | 41 | 8 | 4.0 | 10.0 | 0.00 | 0.03 | 0.00 | 76 | 1016.4 |
| 20260502161910 | 41 | 316 | 3.0 | 8.0 | 0.00 | 0.03 | 0.00 | 77 | 1016.3 |
| 20260502151205 | 41 | 39 | 4.0 | 12.0 | 0.00 | 0.03 | 0.00 | 78 | 1016.1 |
| 20260502122703 | 34 | 349 | 2.0 | 7.0 | 0.00 | 0.07 | 0.00 | 88 | 1015.4 |
| 20260502121201 | 33 | 284 | 2.0 | 7.0 | 0.00 | 0.09 | 0.00 | 88 | 1015.5 |
| 20260502115659 | 33 | 340 | 2.0 | 6.0 | 0.00 | 0.09 | 0.00 | 89 | 1015.5 |
| 20260502114159 | 32 | 278 | 1.0 | 4.0 | 0.00 | 0.09 | 0.00 | 89 | 1015.4 |
| 20260502112658 | 32 | 262 | 0.0 | 1.0 | 0.00 | 0.09 | 0.00 | 90 | 1015.6 |
| 20260502111159 | 32 | 316 | 0.0 | 2.0 | 0.00 | 0.09 | 0.00 | 89 | 1015.4 |
| 20260502105656 | 31 | 216 | 0.0 | 1.0 | 0.00 | 0.09 | 0.00 | 90 | 1015.0 |
| 20260502104157 | 31 | 207 | 0.0 | 2.0 | 0.00 | 0.09 | 0.00 | 90 | 1014.9 |
| 20260502102656 | 31 | 216 | 0.0 | 2.0 | 0.00 | 0.09 | 0.00 | 90 | 1015.2 |
| 20260502101157 | 31 | 203 | 0.0 | 2.0 | 0.00 | 0.09 | 0.00 | 89 | 1015.0 |
| 20260502100356 | 31 | 217 | 1.0 | 3.0 | 0.00 | 0.09 | 0.00 | 90 | 1014.9 |
| 20260502091155 | 32 | 268 | 0.0 | 2.0 | 0.00 | 0.09 | 0.00 | 90 | 1014.9 |
| 20260502065636 | 35 | 292 | 1.0 | 3.0 | 0.00 | 0.09 | 0.00 | 94 | 1014.8 |
| 20260502064136 | 35 | 243 | 0.0 | 2.0 | 0.00 | 0.09 | 0.00 | 94 | 1015.0 |
| 20260502063347 | 36 | 216 | 1.0 | 2.0 | 0.00 | 0.09 | 0.00 | 94 | 1014.9 |
| 20260502061132 | 36 | 263 | 1.0 | 3.0 | 0.00 | 0.09 | 0.00 | 94 | 1015.1 |
| 20260502060337 | 36 | 242 | 0.0 | 1.0 | 0.00 | 0.09 | 0.00 | 94 | 1015.1 |
| 20260502054127 | 36 | 226 | 0.0 | 1.0 | 0.00 | 0.09 | 0.00 | 93 | 1015.4 |
| 20260502053326 | 37 | 234 | 0.0 | 1.0 | 0.00 | 0.09 | 0.00 | 93 | 1015.2 |
| 20260502051127 | 37 | 231 | 0.0 | 2.0 | 0.00 | 0.09 | 0.00 | 93 | 1015.4 |
| 20260502045624 | 37 | 234 | 0.0 | 2.0 | 0.00 | 0.09 | 0.00 | 93 | 1015.5 |
| 20260502044813 | 37 | 238 | 0.0 | 2.0 | 0.01 | 0.09 | 0.00 | 92 | 1015.2 |
| 20260502042623 | 38 | 242 | 0.0 | 1.0 | 0.01 | 0.09 | 0.00 | 93 | 1015.5 |
| 20260502041124 | 38 | 217 | 0.0 | 1.0 | 0.01 | 0.09 | 0.00 | 93 | 1015.5 |
| 20260502035623 | 37 | 212 | 0.0 | 1.0 | 0.01 | 0.09 | 0.09 | 92 | 1015.6 |
| 20260502034122 | 37 | 207 | 0.0 | 0.0 | 0.00 | 0.08 | 0.08 | 91 | 1015.5 |
| 20260502033324 | 38 | 206 | 0.0 | 0.0 | 0.00 | 0.08 | 0.08 | 91 | 1015.6 |
| 20260502031122 | 39 | 209 | 0.0 | 0.0 | 0.00 | 0.08 | 0.08 | 90 | 1015.6 |
| 20260502025622 | 39 | 209 | 0.0 | 0.0 | 0.00 | 0.08 | 0.08 | 90 | 1015.5 |
| 20260502024122 | 40 | 209 | 0.0 | 0.0 | 0.00 | 0.08 | 0.08 | 89 | 1015.4 |
| 20260502022622 | 40 | 187 | 0.0 | 0.0 | 0.00 | 0.08 | 0.08 | 89 | 1015.1 |
| 20260502021122 | 40 | 218 | 0.0 | 0.0 | 0.00 | 0.08 | 0.08 | 88 | 1015.1 |
| 20260502015623 | 40 | 218 | 0.0 | 0.0 | 0.00 | 0.08 | 0.08 | 87 | 1014.9 |
| 20260502014122 | 40 | 218 | 0.0 | 0.0 | 0.00 | 0.08 | 0.08 | 87 | 1014.8 |
| 20260502012622 | 40 | 214 | 0.0 | 0.0 | 0.00 | 0.08 | 0.08 | 86 | 1014.6 |
| 20260502011822 | 41 | 323 | 0.0 | 0.0 | 0.00 | 0.08 | 0.08 | 85 | 1014.2 |
| 20260502005620 | 41 | 323 | 0.0 | 0.0 | 0.00 | 0.08 | 0.08 | 84 | 1014.2 |
| 20260502004808 | 41 | 329 | 0.0 | 3.0 | 0.00 | 0.08 | 0.08 | 84 | 1014.3 |
| 20260502002620 | 41 | 312 | 1.0 | 4.0 | 0.00 | 0.08 | 0.08 | 83 | 1014.3 |
| 20260502001815 | 42 | 313 | 2.0 | 6.0 | 0.00 | 0.08 | 0.08 | 83 | 1014.3 |
| 20260501235620 | 42 | 328 | 2.0 | 6.0 | 0.00 | 0.08 | 0.08 | 83 | 1013.8 |
| 20260501234120 | 42 | 293 | 3.0 | 6.0 | 0.00 | 0.08 | 0.08 | 83 | 1013.7 |
| 20260501232620 | 42 | 312 | 4.0 | 7.0 | 0.00 | 0.08 | 0.08 | 83 | 1013.5 |
| 20260501231120 | 42 | 328 | 3.0 | 6.0 | 0.00 | 0.08 | 0.08 | 84 | 1013.5 |
| 20260501225620 | 43 | 315 | 3.0 | 7.0 | 0.00 | 0.08 | 0.08 | 84 | 1013.4 |
| 20260501224118 | 43 | 351 | 4.0 | 10.0 | 0.00 | 0.08 | 0.08 | 84 | 1013.4 |
| 20260501223318 | 44 | 306 | 5.0 | 10.0 | 0.00 | 0.08 | 0.08 | 82 | 1013.7 |